Regional Weather Roundup
Issued by NWS

Current Version | Previous Version | Text Only | Print | Product List | Glossary On
Versions: 1 2 3 4 5 6 7 8 9 10 11 12 13 14 15 16 17 18 19 20 21 22 23 24 25 26 27 28 29 30 31 32 33 34 35 36 37 38 39 40 41 42 43 44 45 46 47 48 49 50
000
ASUS44 KMEG 041210
RWRTN
TENNESSEE HOURLY STATE WEATHER ROUNDUP
NATIONAL WEATHER SERVICE MEMPHIS TN
600 AM CST THU MAR 04 2021

TNZ002-004-019-021-049-052-054-088>092-041300-
WEST TENNESSEE

CITY           SKY/WX    TMP DP  RH WIND       PRES   REMARKS
MEMPHIS INTL   CLEAR     41  36  82 CALM      30.15S
NWS MEMPHIS      N/A     36 N/A N/A MISG        N/A
JACKSON        CLEAR     33  30  88 CALM      30.15S
DYERSBURG      CLEAR     39  36  89 CALM      30.15S
SOMERVILLE     CLEAR     37  34  87 CALM      30.13S
COVINGTON      PTCLDY    36  34  93 CALM      30.15R
UNION CITY     CLEAR     36  34  93 CALM      30.13S
PARIS          CLEAR     37  32  81 CALM      30.14R
HUNTINGDON     CLEAR     34  34 100 CALM      30.13S
LEXINGTON      CLEAR     30  30 100 CALM      30.14S
SELMER         CLEAR     36  34  93 CALM      30.15R
SAVANNAH       PTCLDY    32  32 100 CALM      30.16R
$$

TNZ008-025-027-028-033-062-065-066-041300-
NORTH MIDDLE TENNESSEE

CITY           SKY/WX    TMP DP  RH WIND       PRES   REMARKS
NASHVILLE      CLEAR     36  30  79 S5        30.15R WCI  32
DICKSON        PTCLDY    43  34  70 CALM      30.12S
PORTLAND       CLEAR     36  32  87 CALM      30.13S
CLARKSVILLE    CLEAR     34  32  92 E3        30.14R
LEBANON        PTCLDY    34  32  93 CALM      30.13R
SMYRNA         CLEAR     31  31 100 CALM      30.17R
MURFREESBORO   PTCLDY    32  30  93 CALM      30.14R
COOKEVILLE     CLEAR     28  27  93 CALM      30.13S
LIVINGSTON     CLEAR     41  30  65 W6        30.11S
GALLATIN       CLEAR     32  32 100 CALM      30.18R
CROSSVILLE     CLEAR     36  28  73 W5        30.12R WCI  32
ROCKWOOD       CLEAR     46  32  57 NW8G14    30.10R
$$

TNZ061-075-076-078-094-096-097-041300-
SOUTH MIDDLE TENNESSEE

CITY           SKY/WX    TMP DP  RH WIND       PRES   REMARKS
LAWRENCEBURG   PTCLDY    32  32 100 CALM      30.14S
LEWISBURG      CLEAR     30  30 100 CALM      30.15R
FAYETTEVILLE   CLEAR     37  32  81 CALM      30.16S
TULLAHOMA      CLEAR     30  28  93 CALM      30.14R
WINCHESTER     CLEAR     32  32 100 CALM      30.14R
MCMINNVILLE    CLEAR     30  30 100 CALM      30.14S FOG
COLUMBIA       PTCLDY    32  32 100 CALM      30.14R
SHELBYVILLE    CLEAR     32  30  93 CALM      30.15R
$$

TNZ017-018-042-046-047-041300-
NORTHEAST TENNESSEE

CITY           SKY/WX    TMP DP  RH WIND       PRES   REMARKS
TRI CITIES     PTCLDY    30  27  88 CALM      30.08R
ELIZABETHTON   PTCLDY    30  28  93 CALM      30.08R
GREENEVILLE    CLEAR     41  27  56 CALM      30.08R
$$

TNZ012-013-036-069-073-074-041300-
CENTRAL EAST TENNESSEE

CITY           SKY/WX    TMP DP  RH WIND       PRES   REMARKS
KNOXVILLE      CLEAR     36  30  79 S3        30.11R
OAK RIDGE      CLEAR     33  30  88 CALM      30.13R
DOWNTOWN KNOXV CLEAR     32  32 100 CALM      30.12S
GATLINBURG     PTCLDY    30  30 100 CALM      30.11R
MORRISTOWN     PTCLDY    34  28  80 CALM      30.08S
JACKSBORO      CLEAR     43  32  65 CALM      30.13R
$$

TNZ083-085-099-041300-
SOUTHEAST TENNESSEE

CITY           SKY/WX    TMP DP  RH WIND       PRES   REMARKS
CHATTANOOGA    CLEAR     37  34  89 CALM      30.13R
DAYTON         PTCLDY    32  32 100 CALM      30.13R
$$

SKY/WX REPORTED AS FAIR MEANS FEW OR NO CLOUDS BELOW
12 THOUSAND FEET.




USA.gov is the U.S. government's official web portal to all federal, state and local government web resources and services.